KAR420 UWWW-URSS

Flight info

Callsign KAR420
Flight time 3h 10m
Altitude 37000
Route GITEK T784 DENUD DCT URL W324 AKT DCT IPLED DCT GOTIK DCT MEMZA DCT VENFO DCT BINOL
Aircraft B739/M-SDE2E3FGHIRWXY/LB1

Departure

Time 2026-05-07 10:22
Airport Kurumoch International Airport (UWWW)

Arrival

Time 2026-05-07 13:33
Airport Sochi International Airport (URSS)
Time Latitude Longitude Altitude Speed Heading
2026-05-07 09:59 53.51056 50.16087 486 ft 0 kts 150°
2026-05-07 10:12 53.51054 50.16089 486 ft 1 kts 150°
2026-05-07 10:12 53.51043 50.16100 486 ft 4 kts 149°
2026-05-07 10:12 53.51041 50.16102 486 ft 0 kts 147°
2026-05-07 10:13 53.51035 50.16118 486 ft 4 kts 122°
2026-05-07 10:13 53.51035 50.16183 486 ft 8 kts 41°
2026-05-07 10:13 53.51102 50.16154 486 ft 12 kts 331°
2026-05-07 10:13 53.51165 50.16179 486 ft 9 kts 60°
2026-05-07 10:14 53.51194 50.16267 486 ft 7 kts 61°
2026-05-07 10:14 53.51217 50.16337 486 ft 5 kts 61°
2026-05-07 10:14 53.51234 50.16389 486 ft 4 kts 61°
2026-05-07 10:14 53.51245 50.16423 486 ft 2 kts 61°
2026-05-07 10:15 53.51253 50.16449 486 ft 3 kts 61°
2026-05-07 10:15 53.51265 50.16485 486 ft 4 kts 61°
2026-05-07 10:15 53.51281 50.16534 486 ft 5 kts 61°
2026-05-07 10:15 53.51303 50.16602 486 ft 7 kts 61°
2026-05-07 10:16 53.51332 50.16682 486 ft 8 kts 46°
2026-05-07 10:16 53.51392 50.16699 486 ft 10 kts 345°
2026-05-07 10:16 53.51465 50.16660 486 ft 11 kts 342°
2026-05-07 10:16 53.51546 50.16618 486 ft 13 kts 343°
2026-05-07 10:17 53.51628 50.16566 486 ft 11 kts 339°
2026-05-07 10:17 53.51699 50.16527 486 ft 9 kts 352°
2026-05-07 10:17 53.51756 50.16548 486 ft 7 kts 29°
2026-05-07 10:17 53.51790 50.16606 486 ft 5 kts 59°
2026-05-07 10:18 53.51795 50.16624 486 ft 0 kts 64°
2026-05-07 10:20 53.51799 50.16639 486 ft 4 kts 65°
2026-05-07 10:20 53.51818 50.16731 486 ft 11 kts 77°
2026-05-07 10:20 53.51799 50.16867 486 ft 13 kts 139°
2026-05-07 10:21 53.51754 50.16904 486 ft 0 kts 160°
2026-05-07 10:21 53.51614 50.16988 486 ft 57 kts 160°
2026-05-07 10:22 53.50990 50.17366 487 ft 129 kts 160°
2026-05-07 10:22 53.49930 50.17998 492 ft 190 kts 159°
2026-05-07 10:22 53.48632 50.18787 1025 ft 202 kts 157°
2026-05-07 10:22 53.47384 50.19860 1804 ft 205 kts 136°
2026-05-07 10:23 53.46707 50.21913 2334 ft 203 kts 93°
2026-05-07 10:23 53.46689 50.22324 2384 ft 204 kts 86°
2026-05-07 10:23 53.47064 50.24269 2474 ft 214 kts 49°
2026-05-07 10:23 53.48305 50.25479 2874 ft 212 kts
2026-05-07 10:24 53.49743 50.25140 3386 ft 213 kts 343°
2026-05-07 10:24 53.51265 50.24732 3581 ft 234 kts
2026-05-07 10:24 53.52721 50.25888 4051 ft 243 kts 44°
2026-05-07 10:24 53.53511 50.28466 4484 ft 260 kts 79°
2026-05-07 10:25 53.53560 50.31564 5012 ft 270 kts 87°
2026-05-07 10:25 53.53905 50.34683 5536 ft 275 kts 63°
2026-05-07 10:25 53.54886 50.37412 6230 ft 276 kts 53°
2026-05-07 10:25 53.55975 50.40089 6892 ft 280 kts 53°
2026-05-07 10:26 53.57096 50.42807 7574 ft 284 kts 53°
2026-05-07 10:26 53.58245 50.45528 8275 ft 287 kts 52°
2026-05-07 10:26 53.59418 50.48285 9001 ft 289 kts 52°
2026-05-07 10:26 53.60591 50.51047 9675 ft 293 kts 54°
2026-05-07 10:27 53.61564 50.54074 10288 ft 301 kts 66°
2026-05-07 10:27 53.62103 50.57603 10447 ft 327 kts 83°
2026-05-07 10:27 53.61997 50.61581 10631 ft 350 kts 99°
2026-05-07 10:27 53.61249 50.65514 11022 ft 364 kts 116°
2026-05-07 10:28 53.59747 50.69047 11652 ft 371 kts 136°
2026-05-07 10:28 53.57634 50.71605 12378 ft 375 kts 151°
2026-05-07 10:28 53.55331 50.73661 13080 ft 379 kts 153°
2026-05-07 10:28 53.53001 50.75750 13789 ft 383 kts 154°
2026-05-07 10:29 53.50541 50.77495 14484 ft 387 kts 164°
2026-05-07 10:29 53.47889 50.78064 15150 ft 389 kts 185°
2026-05-07 10:29 53.45224 50.77251 15888 ft 390 kts 196°
2026-05-07 10:30 53.40511 50.72936 17123 ft 393 kts 231°
2026-05-07 10:30 53.38913 50.69215 17826 ft 394 kts 236°
2026-05-07 10:30 53.37248 50.65552 18414 ft 399 kts 232°
2026-05-07 10:30 53.35477 50.61949 19034 ft 402 kts 232°
2026-05-07 10:31 53.33716 50.58252 19641 ft 406 kts 233°
2026-05-07 10:31 53.31971 50.54499 20238 ft 409 kts 233°
2026-05-07 10:31 53.30235 50.50770 20815 ft 412 kts 233°
2026-05-07 10:31 53.28352 50.47097 21354 ft 416 kts 225°
2026-05-07 10:32 53.26069 50.44073 21893 ft 421 kts 214°
2026-05-07 10:32 53.23508 50.41754 22419 ft 425 kts 205°
2026-05-07 10:32 53.20703 50.40151 22929 ft 429 kts 197°
2026-05-07 10:32 53.17811 50.38817 23434 ft 432 kts 197°
2026-05-07 10:33 53.14917 50.37415 23917 ft 434 kts 198°
2026-05-07 10:33 53.12003 50.35962 24388 ft 437 kts 198°
2026-05-07 10:33 53.09053 50.34505 24886 ft 439 kts 198°
2026-05-07 10:33 53.06113 50.33065 25392 ft 441 kts 198°
2026-05-07 10:34 53.03186 50.31633 25885 ft 442 kts 198°
2026-05-07 10:34 53.00214 50.30181 26373 ft 443 kts 198°
2026-05-07 10:34 52.97241 50.28729 26857 ft 444 kts 198°
2026-05-07 10:34 52.94256 50.27275 27295 ft 446 kts 199°
2026-05-07 10:35 52.91298 50.25835 27672 ft 448 kts 199°
2026-05-07 10:35 52.88297 50.24378 28047 ft 451 kts 199°
2026-05-07 10:35 52.85259 50.22905 28428 ft 453 kts 199°
2026-05-07 10:35 52.82242 50.21419 28783 ft 455 kts 200°
2026-05-07 10:36 52.79253 50.19701 29109 ft 456 kts 204°
2026-05-07 10:36 52.76402 50.17559 29713 ft 449 kts 210°
2026-05-07 10:36 52.73723 50.15016 30192 ft 446 kts 213°
2026-05-07 10:36 52.71065 50.12390 30639 ft 446 kts 211°
2026-05-07 10:37 52.68167 50.10440 30990 ft 450 kts 197°
2026-05-07 10:37 52.65114 50.09441 31448 ft 449 kts 193°
2026-05-07 10:37 52.62050 50.08400 31837 ft 448 kts 194°
2026-05-07 10:37 52.58989 50.07617 32147 ft 451 kts 187°
2026-05-07 10:38 52.55867 50.07866 32437 ft 457 kts 173°
2026-05-07 10:38 52.52759 50.09080 32846 ft 456 kts 169°
2026-05-07 10:38 52.49708 50.10334 33179 ft 456 kts 168°
2026-05-07 10:38 52.46717 50.12042 33403 ft 461 kts 158°
2026-05-07 10:39 52.43974 50.14869 33661 ft 466 kts 143°
2026-05-07 10:39 52.41602 50.18445 34047 ft 465 kts 137°
2026-05-07 10:39 52.39317 50.22248 34268 ft 467 kts 137°
2026-05-07 10:39 52.37013 50.25946 34538 ft 466 kts 139°
2026-05-07 10:40 52.34669 50.29537 34825 ft 464 kts 140°
2026-05-07 10:40 52.32290 50.33098 35062 ft 464 kts 140°
2026-05-07 10:40 52.29890 50.36649 35347 ft 462 kts 140°
2026-05-07 10:40 52.27510 50.40143 35580 ft 462 kts 140°
2026-05-07 10:41 52.25095 50.43660 35810 ft 462 kts 141°
2026-05-07 10:41 52.22689 50.47141 36035 ft 461 kts 141°
2026-05-07 10:41 52.20309 50.50568 36250 ft 460 kts 141°
2026-05-07 10:41 52.17889 50.54041 36438 ft 460 kts 141°
2026-05-07 10:42 52.15484 50.57482 36620 ft 460 kts 141°
2026-05-07 10:42 52.13070 50.60927 36801 ft 460 kts 141°
2026-05-07 10:42 52.08231 50.67805 36884 ft 464 kts 142°
2026-05-07 10:43 52.03385 50.74670 36885 ft 461 kts 142°
2026-05-07 10:43 51.98541 50.81506 36885 ft 459 kts 142°
2026-05-07 10:44 51.93487 50.87704 36885 ft 455 kts 152°
2026-05-07 10:44 51.87925 50.92539 36885 ft 454 kts 155°
2026-05-07 10:45 51.82360 50.97409 36885 ft 454 kts 155°
2026-05-07 10:45 51.76785 51.02233 36885 ft 453 kts 155°
2026-05-07 10:46 51.71217 51.07008 36885 ft 452 kts 155°
2026-05-07 10:46 51.65638 51.11769 36885 ft 452 kts 156°
2026-05-07 10:47 51.60080 51.16493 36885 ft 452 kts 156°
2026-05-07 10:47 51.54505 51.21214 36885 ft 452 kts 156°
2026-05-07 10:48 51.48911 51.25937 36885 ft 452 kts 156°
2026-05-07 10:48 51.43353 51.30614 36885 ft 452 kts 156°
2026-05-07 10:49 51.37763 51.35305 36885 ft 452 kts 156°
2026-05-07 10:49 51.32210 51.39951 36885 ft 452 kts 156°
2026-05-07 10:50 51.26622 51.44613 36885 ft 452 kts 156°
2026-05-07 10:50 51.21037 51.49262 36885 ft 452 kts 156°
2026-05-07 10:51 51.15331 51.53268 36884 ft 446 kts 167°
2026-05-07 10:51 51.09286 51.54676 36886 ft 439 kts 181°
2026-05-07 10:52 51.03177 51.55031 36885 ft 440 kts 180°
2026-05-07 10:52 50.97061 51.55516 36884 ft 436 kts 181°
2026-05-07 10:53 50.91045 51.55927 36884 ft 431 kts 182°
2026-05-07 10:53 50.85117 51.56277 36884 ft 427 kts 182°
2026-05-07 10:54 50.79170 51.56656 36885 ft 428 kts 182°
2026-05-07 10:54 50.73185 51.57087 36885 ft 430 kts 182°
2026-05-07 10:55 50.67200 51.57569 36885 ft 429 kts 182°
2026-05-07 10:55 50.61225 51.58000 36885 ft 429 kts 182°
2026-05-07 10:56 50.55276 51.58407 36884 ft 429 kts 182°
2026-05-07 10:56 50.49316 51.58788 36885 ft 429 kts 182°
2026-05-07 10:57 50.43299 51.59177 36885 ft 430 kts 182°
2026-05-07 10:57 50.37356 51.59523 36884 ft 428 kts 183°
2026-05-07 10:58 50.31379 51.59846 36885 ft 428 kts 182°
2026-05-07 10:58 50.25406 51.60298 36885 ft 430 kts 181°
2026-05-07 10:59 50.19424 51.60757 36884 ft 430 kts 182°
2026-05-07 10:59 50.13477 51.61198 36885 ft 429 kts 182°
2026-05-07 11:00 50.07498 51.61613 36885 ft 429 kts 182°
2026-05-07 11:00 50.01540 51.61944 36884 ft 428 kts 183°
2026-05-07 11:01 49.95586 51.62276 36885 ft 429 kts 182°
2026-05-07 11:01 49.89618 51.62700 36885 ft 429 kts 181°
2026-05-07 11:02 49.83655 51.63170 36885 ft 429 kts 182°
2026-05-07 11:02 49.77697 51.63585 36884 ft 430 kts 182°
2026-05-07 11:03 49.71725 51.64019 36885 ft 428 kts 182°
2026-05-07 11:03 49.65780 51.64417 36885 ft 429 kts 182°
2026-05-07 11:04 49.59803 51.64801 36885 ft 429 kts 182°
2026-05-07 11:04 49.53839 51.65105 36884 ft 428 kts 183°
2026-05-07 11:05 49.47888 51.65466 36885 ft 428 kts 183°
2026-05-07 11:05 49.41884 51.65834 36884 ft 428 kts 183°
2026-05-07 11:06 49.35850 51.66222 36884 ft 428 kts 183°
2026-05-07 11:06 49.29854 51.66633 36884 ft 428 kts 182°
2026-05-07 11:07 49.23917 51.67009 36868 ft 429 kts 183°
2026-05-07 11:07 49.17893 51.67411 36838 ft 428 kts 183°
2026-05-07 11:08 49.11832 51.67787 36807 ft 427 kts 183°
2026-05-07 11:08 49.05866 51.68195 36803 ft 428 kts 183°
2026-05-07 11:09 48.99923 51.68675 36804 ft 430 kts 184°
2026-05-07 11:09 48.93920 51.69120 36804 ft 431 kts 184°
2026-05-07 11:10 48.87929 51.69452 36803 ft 428 kts 185°
2026-05-07 11:10 48.81936 51.69783 36804 ft 429 kts 185°
2026-05-07 11:11 48.76228 51.70148 36803 ft 432 kts 184°
2026-05-07 11:11 48.70250 51.70583 36803 ft 431 kts 184°
2026-05-07 11:12 48.64158 51.71035 36804 ft 429 kts 184°
2026-05-07 11:12 48.57975 51.71437 36804 ft 429 kts 185°
2026-05-07 11:13 48.51951 51.71840 36804 ft 430 kts 184°
2026-05-07 11:13 48.45779 51.72256 36804 ft 431 kts 185°
2026-05-07 11:14 48.39673 51.72612 36803 ft 429 kts 184°
2026-05-07 11:14 48.33558 51.72995 36804 ft 429 kts 184°
2026-05-07 11:15 48.27391 51.73390 36804 ft 429 kts 184°
2026-05-07 11:15 48.21255 51.73779 36804 ft 431 kts 184°
2026-05-07 11:16 48.15080 51.74166 36803 ft 430 kts 184°
2026-05-07 11:16 48.08868 51.74545 36803 ft 429 kts 185°
2026-05-07 11:17 48.02647 51.74934 36804 ft 429 kts 184°
2026-05-07 11:17 47.96473 51.75330 36804 ft 431 kts 184°
2026-05-07 11:18 47.90385 51.75697 36804 ft 429 kts 185°
2026-05-07 11:18 47.84266 51.76078 36804 ft 430 kts 184°
2026-05-07 11:19 47.78133 51.76461 36804 ft 430 kts 184°
2026-05-07 11:19 47.72024 51.76823 36804 ft 429 kts 185°
2026-05-07 11:20 47.65863 51.77119 36804 ft 430 kts 185°
2026-05-07 11:20 47.59639 51.77433 36804 ft 430 kts 185°
2026-05-07 11:21 47.53456 51.77765 36803 ft 429 kts 185°
2026-05-07 11:21 47.47196 51.78124 36804 ft 429 kts 184°
2026-05-07 11:22 47.40953 51.78484 36804 ft 430 kts 185°
2026-05-07 11:22 47.34773 51.78841 36804 ft 429 kts 184°
2026-05-07 11:23 47.28725 51.79209 36803 ft 430 kts 184°
2026-05-07 11:23 47.22529 51.79589 36803 ft 429 kts 184°
2026-05-07 11:24 47.16401 51.79941 36803 ft 427 kts 185°
2026-05-07 11:24 47.10434 51.79166 36805 ft 421 kts 195°
2026-05-07 11:25 47.04432 51.77825 36804 ft 421 kts 194°
2026-05-07 11:25 46.98375 51.76539 36804 ft 420 kts 195°
2026-05-07 11:26 46.92532 51.75270 36804 ft 421 kts 196°
2026-05-07 11:26 46.86770 51.74004 36803 ft 421 kts 197°
2026-05-07 11:27 46.80949 51.72737 36803 ft 422 kts 197°
2026-05-07 11:27 46.75154 51.71456 36805 ft 423 kts 197°
2026-05-07 11:28 46.69286 51.70193 36803 ft 421 kts 197°
2026-05-07 11:28 46.63509 51.68870 36804 ft 421 kts 197°
2026-05-07 11:29 46.57707 51.67528 36804 ft 421 kts 197°
2026-05-07 11:29 46.51911 51.66246 36803 ft 421 kts 197°
2026-05-07 11:30 46.46120 51.64952 36804 ft 421 kts 197°
2026-05-07 11:30 46.40330 51.63677 36804 ft 419 kts 197°
2026-05-07 11:31 46.34561 51.62401 36804 ft 421 kts 197°
2026-05-07 11:31 46.28735 51.61103 36803 ft 422 kts 197°
2026-05-07 11:32 46.20054 51.59261 36803 ft 422 kts 196°
2026-05-07 11:33 46.14264 51.58025 36803 ft 419 kts 197°
2026-05-07 11:33 46.08469 51.56725 36803 ft 419 kts 197°
2026-05-07 11:34 46.02670 51.55430 36804 ft 424 kts 198°
2026-05-07 11:34 45.96852 51.54145 36803 ft 423 kts 197°
2026-05-07 11:35 45.91060 51.52891 36804 ft 420 kts 197°
2026-05-07 11:35 45.85284 51.51637 36803 ft 419 kts 197°
2026-05-07 11:36 45.79473 51.50393 36803 ft 420 kts 197°
2026-05-07 11:36 45.73708 51.49149 36803 ft 418 kts 197°
2026-05-07 11:37 45.67961 51.47906 36804 ft 420 kts 197°
2026-05-07 11:37 45.62145 51.46651 36803 ft 422 kts 197°
2026-05-07 11:38 45.56343 51.45436 36839 ft 421 kts 197°
2026-05-07 11:38 45.50528 51.44265 36916 ft 422 kts 197°
2026-05-07 11:39 45.44732 51.43057 36993 ft 421 kts 197°
2026-05-07 11:39 45.38941 51.41782 37019 ft 420 kts 198°
2026-05-07 11:40 45.33181 51.40505 37021 ft 422 kts 197°
2026-05-07 11:40 45.27364 51.39298 37019 ft 423 kts 197°
2026-05-07 11:41 45.21574 51.38140 37021 ft 423 kts 197°
2026-05-07 11:41 45.15771 51.36968 37020 ft 420 kts 197°
2026-05-07 11:42 45.09967 51.35766 37020 ft 420 kts 198°
2026-05-07 11:42 45.04223 51.34539 37018 ft 421 kts 198°
2026-05-07 11:43 44.98439 51.33275 37019 ft 421 kts 199°
2026-05-07 11:43 44.92664 51.32080 37020 ft 417 kts 199°
2026-05-07 11:44 44.86951 51.30895 37020 ft 418 kts 200°
2026-05-07 11:44 44.81153 51.29658 37020 ft 421 kts 200°
2026-05-07 11:45 44.75439 51.28309 37020 ft 416 kts 201°
2026-05-07 11:45 44.69720 51.26825 37020 ft 418 kts 201°
2026-05-07 11:46 44.64044 51.25425 37019 ft 416 kts 201°
2026-05-07 11:46 44.58332 51.24007 37021 ft 416 kts 201°
2026-05-07 11:47 44.52652 51.22559 37020 ft 418 kts 201°
2026-05-07 11:47 44.46930 51.21135 37019 ft 417 kts 201°
2026-05-07 11:48 44.41238 51.19743 37020 ft 417 kts 201°
2026-05-07 11:48 44.35539 51.18323 37020 ft 417 kts 201°
2026-05-07 11:49 44.29848 51.16895 37020 ft 416 kts 201°
2026-05-07 11:49 44.24123 51.15495 37019 ft 417 kts 201°
2026-05-07 11:50 44.18443 51.14113 37020 ft 416 kts 201°
2026-05-07 11:50 44.12753 51.12698 37020 ft 415 kts 201°
2026-05-07 11:51 44.07039 51.11274 37020 ft 417 kts 201°
2026-05-07 11:51 44.01361 51.09901 37020 ft 417 kts 201°
2026-05-07 11:52 43.95712 51.08425 37018 ft 408 kts 206°
2026-05-07 11:52 43.93062 51.07182 37020 ft 397 kts 213°
2026-05-07 11:52 43.90648 51.05459 37020 ft 386 kts 221°
2026-05-07 11:53 43.86656 51.00764 37020 ft 371 kts 234°
2026-05-07 11:53 43.83892 50.94898 37022 ft 361 kts 249°
2026-05-07 11:54 43.81956 50.88470 37020 ft 361 kts 250°
2026-05-07 11:54 43.80037 50.82095 37020 ft 361 kts 250°
2026-05-07 11:55 43.78103 50.75641 37020 ft 360 kts 250°
2026-05-07 11:55 43.76187 50.69244 37020 ft 361 kts 250°
2026-05-07 11:56 43.74261 50.62822 37020 ft 361 kts 250°
2026-05-07 11:56 43.72341 50.56430 37020 ft 361 kts 250°
2026-05-07 11:57 43.70417 50.50043 37020 ft 361 kts 250°
2026-05-07 11:57 43.68488 50.43653 37020 ft 361 kts 250°
2026-05-07 11:58 43.66549 50.37246 37020 ft 361 kts 250°
2026-05-07 11:58 43.64599 50.30813 37020 ft 361 kts 250°
2026-05-07 11:59 43.62664 50.24451 37020 ft 361 kts 250°
2026-05-07 11:59 43.60722 50.18079 37020 ft 360 kts 249°
2026-05-07 12:00 43.58776 50.11712 37020 ft 360 kts 250°
2026-05-07 12:00 43.56817 50.05316 37020 ft 360 kts 250°
2026-05-07 12:01 43.54866 49.98966 37020 ft 361 kts 250°
2026-05-07 12:01 43.52902 49.92585 37020 ft 360 kts 249°
2026-05-07 12:02 43.50931 49.86200 37020 ft 360 kts 250°
2026-05-07 12:02 43.48971 49.79864 37020 ft 360 kts 250°
2026-05-07 12:03 43.47008 49.73533 37020 ft 360 kts 250°
2026-05-07 12:03 43.45024 49.67152 37020 ft 360 kts 250°
2026-05-07 12:04 43.43058 49.60843 37020 ft 360 kts 250°
2026-05-07 12:04 43.41090 49.54488 37019 ft 360 kts 251°
2026-05-07 12:05 43.39941 49.47825 37020 ft 358 kts 265°
2026-05-07 12:05 43.40084 49.40986 37024 ft 360 kts 271°
2026-05-07 12:06 43.40350 49.34064 37040 ft 360 kts 270°
2026-05-07 12:06 43.40613 49.27173 37055 ft 361 kts 270°
2026-05-07 12:07 43.40882 49.20315 37071 ft 360 kts 270°
2026-05-07 12:07 43.41149 49.13406 37074 ft 360 kts 270°
2026-05-07 12:08 43.41414 49.06515 37074 ft 361 kts 270°
2026-05-07 12:08 43.41675 48.99606 37074 ft 361 kts 270°
2026-05-07 12:09 43.41933 48.92671 37074 ft 361 kts 270°
2026-05-07 12:09 43.42186 48.85762 37074 ft 362 kts 270°
2026-05-07 12:10 43.42437 48.78836 37074 ft 362 kts 270°
2026-05-07 12:10 43.42683 48.71904 37074 ft 361 kts 270°
2026-05-07 12:11 43.42924 48.64990 37074 ft 361 kts 270°
2026-05-07 12:11 43.43160 48.58107 37074 ft 361 kts 270°
2026-05-07 12:12 43.43393 48.51184 37074 ft 362 kts 270°
2026-05-07 12:12 43.43623 48.44243 37074 ft 362 kts 270°
2026-05-07 12:13 43.43848 48.37291 37074 ft 362 kts 270°
2026-05-07 12:13 43.44067 48.30399 37074 ft 362 kts 270°
2026-05-07 12:14 43.44284 48.23452 37074 ft 362 kts 270°
2026-05-07 12:14 43.44497 48.16534 37074 ft 362 kts 270°
2026-05-07 12:15 43.44705 48.09592 37074 ft 361 kts 270°
2026-05-07 12:15 43.44909 48.02684 37074 ft 361 kts 270°
2026-05-07 12:16 43.45107 47.95796 37074 ft 361 kts 270°
2026-05-07 12:16 43.45303 47.88878 37074 ft 361 kts 270°
2026-05-07 12:17 43.45494 47.81953 37074 ft 361 kts 270°
2026-05-07 12:17 43.45681 47.75021 37074 ft 361 kts 270°
2026-05-07 12:18 43.45864 47.68100 37074 ft 361 kts 270°
2026-05-07 12:18 43.46043 47.61161 37074 ft 362 kts 270°
2026-05-07 12:19 43.46217 47.54256 37074 ft 361 kts 270°
2026-05-07 12:19 43.46387 47.47341 37074 ft 361 kts 270°
2026-05-07 12:20 43.46553 47.40406 37074 ft 361 kts 270°
2026-05-07 12:20 43.46714 47.33555 37074 ft 362 kts 269°
2026-05-07 12:21 43.46872 47.26627 37074 ft 362 kts 269°
2026-05-07 12:21 43.47025 47.19727 37074 ft 361 kts 269°
2026-05-07 12:22 43.47175 47.12770 37074 ft 361 kts 269°
2026-05-07 12:22 43.47320 47.05861 37074 ft 361 kts 269°
2026-05-07 12:23 43.47461 46.98910 37074 ft 361 kts 269°
2026-05-07 12:23 43.47598 46.91999 37074 ft 361 kts 269°
2026-05-07 12:24 43.47730 46.85115 37074 ft 360 kts 269°
2026-05-07 12:24 43.47858 46.78239 37075 ft 359 kts 269°
2026-05-07 12:25 43.47982 46.71312 37083 ft 360 kts 269°
2026-05-07 12:25 43.48101 46.64437 37090 ft 360 kts 269°
2026-05-07 12:26 43.48217 46.57531 37098 ft 360 kts 269°
2026-05-07 12:26 43.48328 46.50642 37101 ft 360 kts 269°
2026-05-07 12:27 43.48436 46.43737 37101 ft 360 kts 269°
2026-05-07 12:27 43.48539 46.36851 37101 ft 360 kts 269°
2026-05-07 12:28 43.48638 46.29959 37101 ft 360 kts 269°
2026-05-07 12:28 43.48733 46.23078 37101 ft 360 kts 269°
2026-05-07 12:29 43.48824 46.16165 37101 ft 360 kts 269°
2026-05-07 12:29 43.48910 46.09271 37101 ft 360 kts 269°
2026-05-07 12:30 43.49060 46.02379 37100 ft 360 kts 272°
2026-05-07 12:30 43.49686 45.95517 37101 ft 361 kts 274°
2026-05-07 12:31 43.50251 45.88652 37101 ft 361 kts 274°
2026-05-07 12:31 43.50824 45.81766 37101 ft 361 kts 273°
2026-05-07 12:32 43.51391 45.74860 37101 ft 361 kts 273°
2026-05-07 12:32 43.51946 45.68029 37101 ft 361 kts 274°
2026-05-07 12:33 43.52781 45.57679 37101 ft 361 kts 274°
2026-05-07 12:33 43.53331 45.50789 37101 ft 361 kts 274°
2026-05-07 12:34 43.53877 45.43883 37101 ft 361 kts 274°
2026-05-07 12:34 43.54417 45.37019 37101 ft 361 kts 274°
2026-05-07 12:35 43.54951 45.30145 37101 ft 362 kts 273°
2026-05-07 12:35 43.55487 45.23220 37101 ft 361 kts 273°
2026-05-07 12:36 43.56019 45.16296 37101 ft 361 kts 273°
2026-05-07 12:36 43.56541 45.09429 37103 ft 361 kts 273°
2026-05-07 12:37 43.57058 45.02579 37110 ft 362 kts 272°
2026-05-07 12:37 43.57555 44.95649 37118 ft 364 kts 272°
2026-05-07 12:38 43.58046 44.88714 37125 ft 364 kts 272°
2026-05-07 12:38 43.58537 44.81741 37128 ft 364 kts 272°
2026-05-07 12:39 43.59051 44.74802 37128 ft 365 kts 272°
2026-05-07 12:39 43.59539 44.67808 37128 ft 366 kts 272°
2026-05-07 12:40 43.60036 44.60839 37128 ft 365 kts 272°
2026-05-07 12:40 43.60533 44.53815 37128 ft 365 kts 272°
2026-05-07 12:41 43.61025 44.46850 37128 ft 365 kts 272°
2026-05-07 12:41 43.61521 44.39834 37128 ft 365 kts 272°
2026-05-07 12:42 43.62022 44.32840 37121 ft 365 kts 271°
2026-05-07 12:42 43.62500 44.25823 37113 ft 365 kts 271°
2026-05-07 12:43 43.62984 44.18868 37105 ft 365 kts 271°
2026-05-07 12:43 43.63436 44.11911 37101 ft 365 kts 271°
2026-05-07 12:44 43.63665 44.04911 37101 ft 363 kts 269°
2026-05-07 12:44 43.63836 43.97955 37101 ft 363 kts 269°
2026-05-07 12:45 43.64062 43.90986 37101 ft 364 kts 270°
2026-05-07 12:45 43.64277 43.83982 37100 ft 363 kts 269°
2026-05-07 12:46 43.64440 43.77041 37101 ft 363 kts 269°
2026-05-07 12:46 43.64616 43.70072 37101 ft 364 kts 269°
2026-05-07 12:47 43.64792 43.63096 37101 ft 364 kts 269°
2026-05-07 12:47 43.64956 43.56097 37101 ft 364 kts 269°
2026-05-07 12:48 43.65136 43.49136 37100 ft 364 kts 269°
2026-05-07 12:48 43.65301 43.42172 37101 ft 362 kts 269°
2026-05-07 12:49 43.65499 43.35268 37101 ft 362 kts 269°
2026-05-07 12:49 43.65690 43.28300 37101 ft 364 kts 269°
2026-05-07 12:50 43.65859 43.21316 37101 ft 364 kts 269°
2026-05-07 12:50 43.66033 43.14314 37107 ft 364 kts 269°
2026-05-07 12:51 43.66198 43.07347 37117 ft 365 kts 269°
2026-05-07 12:51 43.66314 43.00315 37126 ft 365 kts 268°
2026-05-07 12:52 43.66414 42.93309 37137 ft 368 kts 268°
2026-05-07 12:52 43.66535 42.86287 37150 ft 367 kts 269°
2026-05-07 12:53 43.66659 42.79251 37165 ft 366 kts 268°
2026-05-07 12:53 43.66784 42.72211 37180 ft 367 kts 269°
2026-05-07 12:54 43.66959 42.65158 37182 ft 368 kts 269°
2026-05-07 12:54 43.67088 42.58155 37182 ft 367 kts 269°
2026-05-07 12:55 43.67229 42.51107 37181 ft 367 kts 269°
2026-05-07 12:55 43.67338 42.44063 37182 ft 367 kts 268°
2026-05-07 12:56 43.67390 42.37011 37182 ft 367 kts 268°
2026-05-07 12:56 43.67482 42.29968 37182 ft 368 kts 268°
2026-05-07 12:57 43.67614 42.22922 37181 ft 367 kts 268°
2026-05-07 12:57 43.67730 42.15913 37182 ft 366 kts 268°
2026-05-07 12:58 43.67820 42.08866 37181 ft 367 kts 268°
2026-05-07 12:58 43.67904 42.01850 37182 ft 366 kts 268°
2026-05-07 12:59 43.67987 41.94827 37182 ft 366 kts 268°
2026-05-07 12:59 43.68046 41.87791 37182 ft 367 kts 268°
2026-05-07 13:00 43.68108 41.80728 37182 ft 368 kts 268°
2026-05-07 13:00 43.68188 41.73683 37182 ft 367 kts 267°
2026-05-07 13:01 43.68240 41.66648 37182 ft 365 kts 268°
2026-05-07 13:01 43.68335 41.59647 37181 ft 367 kts 268°
2026-05-07 13:02 43.68381 41.52594 37180 ft 367 kts 267°
2026-05-07 13:02 43.68395 41.45571 37187 ft 366 kts 268°
2026-05-07 13:03 43.68431 41.38565 37195 ft 367 kts 268°
2026-05-07 13:03 43.68462 41.31616 37204 ft 367 kts 268°
2026-05-07 13:04 43.68507 41.28093 37088 ft 366 kts 268°
2026-05-07 13:04 43.68553 41.24633 36634 ft 361 kts 267°
2026-05-07 13:04 43.68572 41.21139 36097 ft 358 kts 267°
2026-05-07 13:04 43.68576 41.17741 35507 ft 357 kts 267°
2026-05-07 13:05 43.68575 41.14295 34898 ft 359 kts 267°
2026-05-07 13:05 43.68579 41.10832 34270 ft 365 kts 267°
2026-05-07 13:05 43.68581 41.07313 33728 ft 363 kts 267°
2026-05-07 13:05 43.68606 41.03852 33263 ft 359 kts 268°
2026-05-07 13:06 43.68645 41.00422 32792 ft 354 kts 268°
2026-05-07 13:06 43.68653 40.97024 32329 ft 351 kts 266°
2026-05-07 13:06 43.68636 40.93617 31861 ft 359 kts 266°
2026-05-07 13:06 43.68625 40.90202 31383 ft 358 kts 266°
2026-05-07 13:07 43.68624 40.88761 31162 ft 357 kts 266°
2026-05-07 13:07 43.68635 40.85341 30654 ft 354 kts 266°
2026-05-07 13:07 43.68668 40.81952 30183 ft 350 kts 267°
2026-05-07 13:07 43.68709 40.78623 29722 ft 354 kts 266°
2026-05-07 13:08 43.68739 40.75256 29249 ft 358 kts 266°
2026-05-07 13:08 43.68769 40.71794 28761 ft 354 kts 266°
2026-05-07 13:08 43.68789 40.68415 28287 ft 351 kts 266°
2026-05-07 13:08 43.68796 40.65038 27812 ft 347 kts 266°
2026-05-07 13:09 43.68803 40.61682 27337 ft 344 kts 265°
2026-05-07 13:09 43.68797 40.58394 26869 ft 343 kts 265°
2026-05-07 13:09 43.68790 40.55093 26404 ft 349 kts 265°
2026-05-07 13:09 43.68805 40.51739 25922 ft 347 kts 266°
2026-05-07 13:10 43.68826 40.48401 25445 ft 344 kts 266°
2026-05-07 13:10 43.68837 40.45116 24977 ft 342 kts 265°
2026-05-07 13:10 43.68837 40.41848 24507 ft 339 kts 265°
2026-05-07 13:10 43.68837 40.38578 24039 ft 337 kts 265°
2026-05-07 13:11 43.68838 40.35344 23572 ft 335 kts 265°
2026-05-07 13:11 43.68838 40.32109 23112 ft 338 kts 265°
2026-05-07 13:11 43.68837 40.28883 22641 ft 340 kts 265°
2026-05-07 13:11 43.68838 40.25564 22160 ft 338 kts 265°
2026-05-07 13:12 43.68833 40.22367 21709 ft 336 kts 264°
2026-05-07 13:12 43.68617 40.19131 21229 ft 330 kts 256°
2026-05-07 13:12 43.68002 40.16065 20762 ft 325 kts 246°
2026-05-07 13:12 43.67020 40.13254 20313 ft 321 kts 237°
2026-05-07 13:13 43.65729 40.10768 20194 ft 317 kts 228°
2026-05-07 13:13 43.64145 40.08605 20210 ft 322 kts 219°
2026-05-07 13:13 43.62311 40.06882 20010 ft 318 kts 209°
2026-05-07 13:13 43.60335 40.05596 19631 ft 315 kts 205°
2026-05-07 13:14 43.58349 40.04358 19199 ft 318 kts 206°
2026-05-07 13:14 43.56344 40.03065 18745 ft 320 kts 206°
2026-05-07 13:14 43.54260 40.01737 18275 ft 318 kts 205°
2026-05-07 13:14 43.52263 40.00481 17829 ft 317 kts 205°
2026-05-07 13:15 43.50209 39.99192 17368 ft 315 kts 205°
2026-05-07 13:15 43.48232 39.97953 16923 ft 314 kts 205°
2026-05-07 13:15 43.46241 39.96709 16447 ft 314 kts 205°
2026-05-07 13:15 43.44183 39.95562 15975 ft 313 kts 199°
2026-05-07 13:16 43.42081 39.94649 15519 ft 312 kts 198°
2026-05-07 13:16 43.40018 39.93731 15070 ft 311 kts 199°
2026-05-07 13:16 43.37847 39.92737 14598 ft 310 kts 199°
2026-05-07 13:16 43.35776 39.91796 14143 ft 309 kts 199°
2026-05-07 13:17 43.33605 39.90811 13674 ft 308 kts 198°
2026-05-07 13:17 43.31571 39.89886 13227 ft 308 kts 198°
2026-05-07 13:17 43.29520 39.88954 12777 ft 307 kts 198°
2026-05-07 13:17 43.27496 39.88035 12336 ft 307 kts 198°
2026-05-07 13:18 43.25470 39.87116 11889 ft 307 kts 198°
2026-05-07 13:18 43.23461 39.86205 11448 ft 306 kts 198°
2026-05-07 13:18 43.21463 39.85299 11009 ft 306 kts 199°
2026-05-07 13:18 43.19441 39.84383 10622 ft 303 kts 199°
2026-05-07 13:19 43.17469 39.83491 10423 ft 294 kts 199°
2026-05-07 13:19 43.15557 39.82626 10250 ft 285 kts 199°
2026-05-07 13:19 43.13707 39.81790 9909 ft 283 kts 199°
2026-05-07 13:19 43.11845 39.80949 9552 ft 281 kts 199°
2026-05-07 13:20 43.10052 39.80140 9209 ft 279 kts 199°
2026-05-07 13:20 43.08207 39.79302 8858 ft 277 kts 201°
2026-05-07 13:20 43.06559 39.78045 8512 ft 273 kts 222°
2026-05-07 13:20 43.05467 39.75966 8218 ft 268 kts 247°
2026-05-07 13:21 43.05048 39.73568 8209 ft 258 kts 266°
2026-05-07 13:21 43.05297 39.71099 8212 ft 264 kts 286°
2026-05-07 13:21 43.05875 39.68712 8208 ft 265 kts 286°
2026-05-07 13:21 43.06428 39.66311 8209 ft 265 kts 286°
2026-05-07 13:22 43.06977 39.63904 8209 ft 265 kts 286°
2026-05-07 13:22 43.07521 39.61533 8209 ft 265 kts 286°
2026-05-07 13:22 43.08073 39.59122 8209 ft 265 kts 286°
2026-05-07 13:22 43.08629 39.56710 8209 ft 265 kts 286°
2026-05-07 13:23 43.09184 39.54297 8209 ft 265 kts 286°
2026-05-07 13:23 43.09730 39.51923 8209 ft 265 kts 286°
2026-05-07 13:23 43.10385 39.49526 8168 ft 267 kts 297°
2026-05-07 13:23 43.11601 39.47633 7905 ft 272 kts 324°
2026-05-07 13:24 43.13339 39.46632 7619 ft 271 kts 348°
2026-05-07 13:24 43.15187 39.46542 7510 ft 261 kts
2026-05-07 13:24 43.16959 39.46802 7417 ft 252 kts 10°
2026-05-07 13:24 43.18530 39.47751 7278 ft 247 kts 41°
2026-05-07 13:25 43.19478 39.49666 7013 ft 242 kts 72°
2026-05-07 13:25 43.19981 39.51913 6739 ft 240 kts 73°
2026-05-07 13:25 43.20530 39.54151 6463 ft 238 kts 72°
2026-05-07 13:25 43.21063 39.56395 6192 ft 237 kts 73°
2026-05-07 13:26 43.21608 39.58716 5911 ft 236 kts 73°
2026-05-07 13:26 43.22125 39.60932 5642 ft 236 kts 73°
2026-05-07 13:26 43.22620 39.63064 5384 ft 235 kts 73°
2026-05-07 13:26 43.23119 39.65210 5125 ft 234 kts 73°
2026-05-07 13:27 43.23610 39.67331 4884 ft 232 kts 72°
2026-05-07 13:27 43.24098 39.69439 4682 ft 235 kts 72°
2026-05-07 13:27 43.24613 39.71666 4183 ft 244 kts 72°
2026-05-07 13:27 43.25122 39.73872 3874 ft 243 kts 72°
2026-05-07 13:28 43.25632 39.76077 3595 ft 241 kts 72°
2026-05-07 13:28 43.26138 39.78272 3325 ft 239 kts 72°
2026-05-07 13:28 43.26636 39.80431 3127 ft 232 kts 71°
2026-05-07 13:28 43.27393 39.82338 2949 ft 224 kts 44°
2026-05-07 13:29 43.28795 39.83403 2785 ft 219 kts
2026-05-07 13:29 43.30336 39.83323 2639 ft 218 kts 351°
2026-05-07 13:29 43.31868 39.83200 2442 ft 219 kts 358°
2026-05-07 13:29 43.33376 39.83294 2253 ft 218 kts
2026-05-07 13:30 43.34759 39.84079 2067 ft 216 kts 39°
2026-05-07 13:30 43.35643 39.85657 1997 ft 199 kts 57°
2026-05-07 13:30 43.36348 39.87179 1948 ft 176 kts 54°
2026-05-07 13:30 43.37060 39.88389 1768 ft 156 kts 44°
2026-05-07 13:31 43.37793 39.89376 1604 ft 153 kts 40°
2026-05-07 13:31 43.38631 39.90335 1367 ft 157 kts 36°
2026-05-07 13:31 43.39475 39.91184 1096 ft 149 kts 32°
2026-05-07 13:31 43.40358 39.91994 853 ft 153 kts 31°
2026-05-07 13:32 43.41231 39.92766 615 ft 149 kts 28°
2026-05-07 13:32 43.42145 39.93498 413 ft 152 kts 26°
2026-05-07 13:32 43.43066 39.94186 214 ft 148 kts 25°
2026-05-07 13:32 43.43937 39.94839 97 ft 135 kts 26°
2026-05-07 13:33 43.44685 39.95398 95 ft 105 kts 28°
2026-05-07 13:33 43.45058 39.95681 94 ft 29 kts 29°
2026-05-07 13:33 43.45223 39.95808 94 ft 25 kts 27°
2026-05-07 13:33 43.45286 39.95785 94 ft 8 kts 252°
2026-05-07 13:34 43.45258 39.95714 94 ft 8 kts 240°
2026-05-07 13:34 43.45172 39.95526 94 ft 12 kts 236°
2026-05-07 13:34 43.45125 39.95432 94 ft 11 kts 235°
2026-05-07 13:35 43.45085 39.95340 94 ft 12 kts 243°
2026-05-07 13:35 43.45045 39.95222 94 ft 14 kts 246°
2026-05-07 13:35 43.45000 39.95090 94 ft 15 kts 236°
2026-05-07 13:35 43.44941 39.94978 94 ft 13 kts 243°
2026-05-07 13:36 43.44906 39.94870 94 ft 11 kts 246°
2026-05-07 13:36 43.44878 39.94778 94 ft 9 kts 252°
2026-05-07 13:36 43.44900 39.94731 94 ft 0 kts 332°
2026-05-07 13:36 43.44902 39.94729 94 ft 0 kts 330°
2026-05-07 13:37 43.44908 39.94724 94 ft 1 kts 334°
2026-05-07 13:37 43.44926 39.94712 94 ft 2 kts 334°
2026-05-07 13:37 43.44929 39.94710 94 ft 0 kts 334°